Location: Al Mulaqqa?ah
(24.1833°N, 32.8833°E)
Time: 19:50:22
(UTC+00:00)

CSL-04 Debris - Pass Details

Date: 26 September 2021
Orbit: 827 x 847 km, 98.9° (Epoch: 25 October)

Event Time Altitude Azimuth Distance (km) Brightness Sun altitude
Exits shadow 17:36:45 45° 184° (S) 1,121 4.7 -27.2°
Maximum altitude 17:38:26 74° 257° (WSW) 863 4.2 -27.6°
Drops below altitude 10° 17:43:49 10° 343° (NNW) 2,432 6.9 -28.8°
Sets 17:46:11 0° 345° (NNW) 3,366 7.7 -29.3°
